Location: Newark
(23.1300°N, 73.6109°E)
Time: 11:25:37
(UTC+00:00)

NOAA 18 - Visible Passes

Search period start: 03 July 2020 00:00
Search period end: 13 July 2020 00:00
Orbit: 840 x 861 km, 99.0° (Epoch: 03 July)

Date Brightness Start Highest point End Pass type
(mag) Time Alt. Az. Time Alt. Az. Time Alt. Az.
03 Jul 5.1 16:07:18 72° SSE 16:07:53 85° ENE 16:13:26 10° NNW visible
04 Jul 5.2 15:55:20 57° ESE 15:56:06 64° ENE 16:01:35 10° N visible
05 Jul 5.5 15:43:23 43° ESE 15:44:21 48° ENE 15:49:38 10° N visible
05 Jul 7.6 17:25:23 14° W 17:25:23 14° W 17:27:57 10° WNW visible
06 Jul 5.9 15:31:26 32° E 15:32:35 36° ENE 15:37:35 10° N visible
06 Jul 7.2 17:13:26 20° W 17:13:26 20° W 17:17:06 10° NW visible
07 Jul 6.3 15:19:29 24° E 15:20:51 27° ENE 15:25:26 10° NNE visible
07 Jul 6.8 17:01:29 26° W 17:01:29 26° W 17:05:53 10° NW visible
08 Jul 6.6 15:07:32 18° E 15:09:08 21° ENE 15:13:06 10° NNE visible
08 Jul 6.4 16:49:32 35° W 16:49:32 35° W 16:54:29 10° NW visible
09 Jul 6.9 14:55:35 13° E 14:57:26 15° ENE 15:00:32 10° NE visible
09 Jul 5.9 16:37:36 47° WSW 16:37:38 47° W 16:42:57 10° NNW visible
10 Jul 7.2 14:44:13 10° E 14:45:46 11° ENE 14:47:19 10° NE visible
10 Jul 5.4 16:25:39 63° WSW 16:25:49 64° WSW 16:31:18 10° NNW visible
11 Jul 5.1 16:13:43 80° SSW 16:14:00 85° WSW 16:19:34 10° NNW visible
12 Jul 5.1 16:01:46 69° ESE 16:02:13 73° ENE 16:07:44 10° N visible
